Time,TemperatureF,DewpointF,PressureIn,WindDirection,WindDirectionDegrees,WindSpeedMPH,WindSpeedGustMPH,Humidity,HourlyPrecipIn,Conditions,Clouds,dailyrainin,SoftwareType,DateUTC
2013-04-29 00:02:00,83.1,28.9,29.82,North,358,6.0,11.0,14,0.00,,,-99.99,FreeWX-Wi 1.02,2013-04-29 07:02:00,
2013-04-29 00:07:00,82.9,28.8,29.82,North,356,6.0,10.5,14,0.00,,,-99.99,FreeWX-Wi 1.02,2013-04-29 07:07:00,
2013-04-29 00:12:00,82.9,28.8,29.82,North,356,6.0,11.0,14,0.00,,,-99.99,FreeWX-Wi 1.02,2013-04-29 07:12:00,
2013-04-29 00:17:00,82.9,28.8,29.82,North,353,6.0,8.3,14,0.00,,,-99.99,FreeWX-Wi 1.02,2013-04-29 07:17:00,
2013-04-29 00:22:00,82.6,28.6,29.82,North,353,6.0,8.3,14,0.00,,,-99.99,FreeWX-Wi 1.02,2013-04-29 07:22:00,
2013-04-29 00:27:00,82.2,28.2,29.82,North,350,5.0,8.3,14,0.00,,,-99.99,FreeWX-Wi 1.02,2013-04-29 07:27:00,
2013-04-29 00:32:00,82.6,28.6,29.82,NNW,347,5.0,8.3,14,0.00,,,-99.99,FreeWX-Wi 1.02,2013-04-29 07:32:00,
2013-04-29 00:37:00,82.6,28.6,29.82,North,350,5.0,7.6,14,0.00,,,-99.99,FreeWX-Wi 1.02,2013-04-29 07:37:00,
2013-04-29 00:42:00,82.4,28.4,29.82,North,350,5.0,8.3,14,0.00,,,-99.99,FreeWX-Wi 1.02,2013-04-29 07:42:00,
2013-04-29 00:47:00,82.9,28.8,29.82,North,351,5.0,10.1,14,0.00,,,-99.99,FreeWX-Wi 1.02,2013-04-29 07:47:00,
2013-04-29 00:52:00,82.9,28.8,29.82,North,353,5.0,10.5,14,0.00,,,-99.99,FreeWX-Wi 1.02,2013-04-29 07:52:00,
2013-04-29 00:57:00,83.1,28.9,29.82,North,356,6.0,10.5,14,0.00,,,-99.99,FreeWX-Wi 1.02,2013-04-29 07:57:00,
2013-04-29 01:02:00,82.6,28.6,29.82,North,355,6.0,9.2,14,0.00,,,-99.99,FreeWX-Wi 1.02,2013-04-29 08:02:00,
2013-04-29 01:07:00,82.6,28.6,29.82,North,355,6.0,8.7,14,0.00,,,-99.99,FreeWX-Wi 1.02,2013-04-29 08:07:00,
2013-04-29 01:12:00,82.9,28.8,29.82,North,356,6.0,12.3,14,0.00,,,-99.99,FreeWX-Wi 1.02,2013-04-29 08:12:00,
2013-04-29 01:17:00,82.9,28.8,29.82,North,354,6.0,10.5,14,0.00,,,-99.99,FreeWX-Wi 1.02,2013-04-29 08:17:00,
2013-04-29 01:22:00,82.4,28.4,29.82,North,354,6.0,10.5,14,0.00,,,-99.99,FreeWX-Wi 1.02,2013-04-29 08:22:00,
2013-04-29 01:27:00,81.9,28.0,29.82,North,354,6.0,8.3,14,0.00,,,-99.99,FreeWX-Wi 1.02,2013-04-29 08:27:00,
2013-04-29 01:32:00,81.5,27.7,29.82,North,353,5.0,11.0,14,0.00,,,-99.99,FreeWX-Wi 1.02,2013-04-29 08:32:00,
2013-04-29 01:37:00,81.7,27.9,29.82,North,354,5.0,11.0,14,0.00,,,-99.99,FreeWX-Wi 1.02,2013-04-29 08:37:00,
2013-04-29 01:42:00,82.4,28.4,29.82,North,354,5.0,8.7,14,0.00,,,-99.99,FreeWX-Wi 1.02,2013-04-29 08:42:00,
2013-04-29 01:47:00,82.2,28.2,29.82,North,354,5.0,7.6,14,0.00,,,-99.99,FreeWX-Wi 1.02,2013-04-29 08:47:00,
2013-04-29 01:52:00,82.0,28.0,29.82,North,353,5.0,9.2,14,0.00,,,-99.99,FreeWX-Wi 1.02,2013-04-29 08:52:00,
2013-04-29 01:57:00,81.5,27.7,29.82,North,354,5.0,8.1,14,0.00,,,-99.99,FreeWX-Wi 1.02,2013-04-29 08:57:00,
2013-04-29 02:02:00,81.7,27.9,29.82,North,356,5.0,8.3,14,0.00,,,-99.99,FreeWX-Wi 1.02,2013-04-29 09:02:00,
2013-04-29 02:07:00,81.0,27.3,29.82,North,357,5.0,8.3,14,0.00,,,-99.99,FreeWX-Wi 1.02,2013-04-29 09:07:00,
2013-04-29 02:12:00,81.1,27.5,29.82,North,357,5.0,12.8,14,0.00,,,-99.99,FreeWX-Wi 1.02,2013-04-29 09:12:00,
2013-04-29 02:17:00,81.7,27.9,29.79,North,355,5.0,13.2,14,0.00,,,-99.99,FreeWX-Wi 1.02,2013-04-29 09:17:00,
2013-04-29 02:22:00,81.1,27.5,29.79,North,355,5.0,7.6,14,0.00,,,-99.99,FreeWX-Wi 1.02,2013-04-29 09:22:00,
2013-04-29 02:27:00,80.6,27.0,29.79,North,353,5.0,7.6,14,0.00,,,-99.99,FreeWX-Wi 1.02,2013-04-29 09:27:00,
2013-04-29 02:32:00,80.8,27.1,29.79,North,354,5.0,8.1,14,0.00,,,-99.99,FreeWX-Wi 1.02,2013-04-29 09:32:00,
2013-04-29 02:37:00,80.6,27.0,29.79,North,355,5.0,6.3,14,0.00,,,-99.99,FreeWX-Wi 1.02,2013-04-29 09:37:00,
2013-04-29 02:42:00,79.9,28.0,29.79,North,354,4.0,8.3,15,0.00,,,-99.99,FreeWX-Wi 1.02,2013-04-29 09:42:00,
2013-04-29 02:47:00,80.1,28.2,29.79,North,359,4.0,7.6,15,0.00,,,-99.99,FreeWX-Wi 1.02,2013-04-29 09:47:00,
2013-04-29 02:52:00,80.1,28.2,29.79,North,0,4.0,7.6,15,0.00,,,-99.99,FreeWX-Wi 1.02,2013-04-29 09:52:00,
2013-04-29 02:57:00,79.0,27.3,29.79,North,359,4.0,5.4,15,0.00,,,-99.99,FreeWX-Wi 1.02,2013-04-29 09:57:00,
2013-04-29 03:02:00,79.5,27.9,29.79,North,356,4.0,8.3,15,0.00,,,-99.99,FreeWX-Wi 1.02,2013-04-29 10:02:00,
2013-04-29 03:07:00,79.5,27.9,29.79,North,356,4.0,7.6,15,0.00,,,-99.99,FreeWX-Wi 1.02,2013-04-29 10:07:00,
2013-04-29 03:12:00,78.6,27.1,29.79,North,355,3.0,5.8,15,0.00,,,-99.99,FreeWX-Wi 1.02,2013-04-29 10:12:00,
2013-04-29 03:17:00,78.4,27.0,29.79,North,354,3.0,8.3,15,0.00,,,-99.99,FreeWX-Wi 1.02,2013-04-29 10:17:00,
2013-04-29 03:22:00,79.2,27.5,29.79,North,355,4.0,8.1,15,0.00,,,-99.99,FreeWX-Wi 1.02,2013-04-29 10:22:00,
2013-04-29 03:27:00,78.6,27.1,29.79,North,356,4.0,5.4,15,0.00,,,-99.99,FreeWX-Wi 1.02,2013-04-29 10:27:00,
2013-04-29 03:32:00,79.0,27.3,29.79,North,357,4.0,7.2,15,0.00,,,-99.99,FreeWX-Wi 1.02,2013-04-29 10:32:00,
2013-04-29 03:37:00,79.0,27.3,29.79,North,359,4.0,6.7,15,0.00,,,-99.99,FreeWX-Wi 1.02,2013-04-29 10:37:00,
2013-04-29 03:42:00,77.9,26.6,29.79,North,2,3.0,3.1,15,0.00,,,-99.99,FreeWX-Wi 1.02,2013-04-29 10:42:00,
2013-04-29 03:47:00,76.6,25.5,29.79,North,5,2.0,2.7,15,0.00,,,-99.99,FreeWX-Wi 1.02,2013-04-29 10:47:00,
2013-04-29 03:52:00,76.6,25.5,29.79,North,7,2.0,4.9,15,0.00,,,-99.99,FreeWX-Wi 1.02,2013-04-29 10:52:00,
2013-04-29 03:57:00,76.1,25.2,29.79,North,10,2.0,4.0,15,0.00,,,-99.99,FreeWX-Wi 1.02,2013-04-29 10:57:00,
2013-04-29 04:02:00,75.6,24.6,29.76,North,11,1.0,3.1,15,0.00,,,-99.99,FreeWX-Wi 1.02,2013-04-29 11:02:00,
2013-04-29 04:07:00,73.9,25.0,29.76,NNE,12,1.0,4.0,16,0.00,,,-99.99,FreeWX-Wi 1.02,2013-04-29 11:07:00,
2013-04-29 04:12:00,72.9,24.1,29.76,NNE,12,1.0,3.1,16,0.00,,,-99.99,FreeWX-Wi 1.02,2013-04-29 11:12:00,
2013-04-29 04:17:00,71.8,23.2,29.79,NNE,12,1.0,3.1,16,0.00,,,-99.99,FreeWX-Wi 1.02,2013-04-29 11:17:00,
2013-04-29 04:22:00,70.9,23.9,29.79,NNE,12,1.0,0.0,17,0.00,,,-99.99,FreeWX-Wi 1.02,2013-04-29 11:22:00,
2013-04-29 04:27:00,70.3,23.5,29.79,North,-999,0.0,0.0,17,0.00,,,-99.99,FreeWX-Wi 1.02,2013-04-29 11:27:00,
2013-04-29 04:32:00,70.0,23.2,29.79,North,-999,0.0,0.0,17,0.00,,,-99.99,FreeWX-Wi 1.02,2013-04-29 11:32:00,
2013-04-29 04:37:00,69.1,22.5,29.79,North,-999,0.0,0.0,17,0.00,,,-99.99,FreeWX-Wi 1.02,2013-04-29 11:37:00,
2013-04-29 04:42:00,68.5,21.9,29.79,North,-999,0.0,0.0,17,0.00,,,-99.99,FreeWX-Wi 1.02,2013-04-29 11:42:00,
2013-04-29 04:47:00,68.2,21.7,29.79,North,-999,0.0,0.0,17,0.00,,,-99.99,FreeWX-Wi 1.02,2013-04-29 11:47:00,
2013-04-29 04:52:00,67.6,21.2,29.79,North,-999,0.0,0.0,17,0.00,,,-99.99,FreeWX-Wi 1.02,2013-04-29 11:52:00,
2013-04-29 04:57:00,67.3,21.0,29.79,North,-999,0.0,0.0,17,0.00,,,-99.99,FreeWX-Wi 1.02,2013-04-29 11:57:00,
2013-04-29 05:02:00,67.3,21.0,29.79,North,-999,0.0,3.1,17,0.00,,,-99.99,FreeWX-Wi 1.02,2013-04-29 12:02:00,
2013-04-29 05:07:00,66.9,20.7,29.79,North,-999,0.0,0.0,17,0.00,,,-99.99,FreeWX-Wi 1.02,2013-04-29 12:07:00,
2013-04-29 05:12:00,66.7,20.5,29.79,North,-999,0.0,0.0,17,0.00,,,-99.99,FreeWX-Wi 1.02,2013-04-29 12:12:00,
2013-04-29 05:17:00,66.7,20.5,29.79,North,-999,0.0,3.1,17,0.00,,,-99.99,FreeWX-Wi 1.02,2013-04-29 12:17:00,
2013-04-29 05:22:00,66.4,20.3,29.79,North,-999,0.0,0.0,17,0.00,,,-99.99,FreeWX-Wi 1.02,2013-04-29 12:22:00,
2013-04-29 05:27:00,66.2,20.1,29.79,North,-999,0.0,0.0,17,0.00,,,-99.99,FreeWX-Wi 1.02,2013-04-29 12:27:00,
2013-04-29 05:32:00,66.2,20.1,29.79,North,-999,0.0,3.1,17,0.00,,,-99.99,FreeWX-Wi 1.02,2013-04-29 12:32:00,
2013-04-29 05:37:00,66.2,20.1,29.79,North,-999,0.0,3.1,17,0.00,,,-99.99,FreeWX-Wi 1.02,2013-04-29 12:37:00,
2013-04-29 05:42:00,66.2,20.1,29.79,North,-999,0.0,3.1,17,0.00,,,-99.99,FreeWX-Wi 1.02,2013-04-29 12:42:00,
2013-04-29 05:47:00,66.2,20.1,29.79,North,-999,0.0,0.0,17,0.00,,,-99.99,FreeWX-Wi 1.02,2013-04-29 12:47:00,
2013-04-29 05:52:00,66.0,21.4,29.79,North,-999,0.0,0.0,18,0.00,,,-99.99,FreeWX-Wi 1.02,2013-04-29 12:52:00,
2013-04-29 05:57:00,65.8,21.2,29.79,North,-999,0.0,0.0,18,0.00,,,-99.99,FreeWX-Wi 1.02,2013-04-29 12:57:00,
2013-04-29 06:02:00,65.8,21.2,29.79,North,-999,0.0,3.6,18,0.00,,,-99.99,FreeWX-Wi 1.02,2013-04-29 13:02:00,
2013-04-29 06:07:00,65.7,21.0,29.79,North,-999,0.0,2.7,18,0.00,,,-99.99,FreeWX-Wi 1.02,2013-04-29 13:07:00,
2013-04-29 06:12:00,65.8,21.2,29.79,North,-999,0.0,0.0,18,0.00,,,-99.99,FreeWX-Wi 1.02,2013-04-29 13:12:00,
2013-04-29 06:17:00,65.7,21.0,29.79,North,-999,0.0,0.0,18,0.00,,,-99.99,FreeWX-Wi 1.02,2013-04-29 13:17:00,
2013-04-29 06:22:00,65.8,21.2,29.79,North,-999,0.0,2.7,18,0.00,,,-99.99,FreeWX-Wi 1.02,2013-04-29 13:22:00,
2013-04-29 06:27:00,66.0,21.4,29.79,North,-999,0.0,0.0,18,0.00,,,-99.99,FreeWX-Wi 1.02,2013-04-29 13:27:00,
2013-04-29 06:32:00,66.4,20.3,29.79,North,-999,0.0,0.0,17,0.00,,,-99.99,FreeWX-Wi 1.02,2013-04-29 13:32:00,
2013-04-29 06:37:00,66.6,20.5,29.79,North,-999,0.0,0.0,17,0.00,,,-99.99,FreeWX-Wi 1.02,2013-04-29 13:37:00,
2013-04-29 06:42:00,66.7,20.5,29.79,North,-999,0.0,0.0,17,0.00,,,-99.99,FreeWX-Wi 1.02,2013-04-29 13:42:00,
2013-04-29 06:47:00,67.1,20.8,29.82,North,-999,0.0,0.0,17,0.00,,,-99.99,FreeWX-Wi 1.02,2013-04-29 13:47:00,
2013-04-29 06:52:00,67.6,21.2,29.82,North,-999,0.0,0.0,17,0.00,,,-99.99,FreeWX-Wi 1.02,2013-04-29 13:52:00,
2013-04-29 06:57:00,68.2,21.7,29.82,North,-999,0.0,2.2,17,0.00,,,-99.99,FreeWX-Wi 1.02,2013-04-29 13:57:00,
2013-04-29 07:02:00,68.5,21.9,29.82,North,-999,0.0,0.0,17,0.00,,,-99.99,FreeWX-Wi 1.02,2013-04-29 14:02:00,
2013-04-29 07:07:00,69.3,22.6,29.82,North,-999,0.0,0.0,17,0.00,,,-99.99,FreeWX-Wi 1.02,2013-04-29 14:07:00,
2013-04-29 07:12:00,69.8,23.0,29.82,North,-999,0.0,0.0,17,0.00,,,-99.99,FreeWX-Wi 1.02,2013-04-29 14:12:00,
2013-04-29 07:17:00,70.5,23.5,29.82,North,-999,0.0,0.0,17,0.00,,,-99.99,FreeWX-Wi 1.02,2013-04-29 14:17:00,
2013-04-29 07:22:00,71.1,24.1,29.82,North,-999,0.0,0.0,17,0.00,,,-99.99,FreeWX-Wi 1.02,2013-04-29 14:22:00,
2013-04-29 07:27:00,71.8,23.2,29.82,North,-999,0.0,0.0,16,0.00,,,-99.99,FreeWX-Wi 1.02,2013-04-29 14:27:00,
2013-04-29 07:32:00,72.7,23.9,29.82,North,-999,0.0,0.0,16,0.00,,,-99.99,FreeWX-Wi 1.02,2013-04-29 14:32:00,
2013-04-29 07:37:00,73.4,24.4,29.82,North,-999,0.0,0.0,16,0.00,,,-99.99,FreeWX-Wi 1.02,2013-04-29 14:37:00,
2013-04-29 07:42:00,74.1,25.0,29.82,North,-999,0.0,0.0,16,0.00,,,-99.99,FreeWX-Wi 1.02,2013-04-29 14:42:00,
2013-04-29 07:47:00,75.0,25.7,29.82,North,-999,0.0,0.0,16,0.00,,,-99.99,FreeWX-Wi 1.02,2013-04-29 14:47:00,
2013-04-29 07:52:00,75.9,25.0,29.82,North,-999,0.0,0.0,15,0.00,,,-99.99,FreeWX-Wi 1.02,2013-04-29 14:52:00,
2013-04-29 07:57:00,76.5,25.3,29.82,North,-999,0.0,0.0,15,0.00,,,-99.99,FreeWX-Wi 1.02,2013-04-29 14:57:00,
2013-04-29 08:02:00,77.4,26.1,29.82,North,-999,0.0,0.0,15,0.00,,,-99.99,FreeWX-Wi 1.02,2013-04-29 15:02:00,
2013-04-29 08:07:00,78.3,26.8,29.82,North,-999,0.0,0.0,15,0.00,,,-99.99,FreeWX-Wi 1.02,2013-04-29 15:07:00,
2013-04-29 08:12:00,79.2,27.5,29.82,North,-999,0.0,0.0,15,0.00,,,-99.99,FreeWX-Wi 1.02,2013-04-29 15:12:00,
2013-04-29 08:17:00,79.9,28.0,29.82,North,-999,0.0,0.0,15,0.00,,,-99.99,FreeWX-Wi 1.02,2013-04-29 15:17:00,
2013-04-29 08:22:00,80.6,27.0,29.82,North,-999,0.0,0.0,14,0.00,,,-99.99,FreeWX-Wi 1.02,2013-04-29 15:22:00,
2013-04-29 08:27:00,81.7,27.9,29.82,North,-999,0.0,0.0,14,0.00,,,-99.99,FreeWX-Wi 1.02,2013-04-29 15:27:00,
2013-04-29 08:32:00,82.0,28.0,29.82,North,-999,0.0,0.0,14,0.00,,,-99.99,FreeWX-Wi 1.02,2013-04-29 15:32:00,
2013-04-29 08:37:00,83.3,29.1,29.82,North,-999,0.0,0.0,14,0.00,,,-99.99,FreeWX-Wi 1.02,2013-04-29 15:37:00,
2013-04-29 08:42:00,83.3,29.1,29.82,North,-999,0.0,0.0,14,0.00,,,-99.99,FreeWX-Wi 1.02,2013-04-29 15:42:00,
2013-04-29 08:47:00,83.3,29.1,29.82,North,-999,0.0,0.0,14,0.00,,,-99.99,FreeWX-Wi 1.02,2013-04-29 15:47:00,
2013-04-29 08:52:00,84.4,28.2,29.82,North,-999,0.0,0.0,13,0.00,,,-99.99,FreeWX-Wi 1.02,2013-04-29 15:52:00,
2013-04-29 08:57:00,85.1,28.8,29.82,North,-999,0.0,0.0,13,0.00,,,-99.99,FreeWX-Wi 1.02,2013-04-29 15:57:00,
2013-04-29 09:02:00,86.2,29.5,29.82,North,-999,0.0,0.0,13,0.00,,,-99.99,FreeWX-Wi 1.02,2013-04-29 16:02:00,
2013-04-29 09:07:00,87.1,30.2,29.82,North,-999,0.0,4.0,13,0.00,,,-99.99,FreeWX-Wi 1.02,2013-04-29 16:07:00,
2013-04-29 09:12:00,87.4,30.6,29.82,North,-999,0.0,3.1,13,0.00,,,-99.99,FreeWX-Wi 1.02,2013-04-29 16:12:00,
2013-04-29 09:17:00,88.2,31.1,29.82,North,-999,0.0,3.6,13,0.00,,,-99.99,FreeWX-Wi 1.02,2013-04-29 16:17:00,
2013-04-29 09:22:00,88.7,31.5,29.82,North,-999,0.0,2.7,13,0.00,,,-99.99,FreeWX-Wi 1.02,2013-04-29 16:22:00,
2013-04-29 09:27:00,89.2,32.0,29.82,North,-999,0.0,0.0,13,0.00,,,-99.99,FreeWX-Wi 1.02,2013-04-29 16:27:00,
2013-04-29 09:32:00,90.3,30.7,29.82,North,-999,0.0,0.0,12,0.00,,,-99.99,FreeWX-Wi 1.02,2013-04-29 16:32:00,
2013-04-29 09:37:00,91.6,31.8,29.82,North,-999,0.0,3.6,12,0.00,,,-99.99,FreeWX-Wi 1.02,2013-04-29 16:37:00,
2013-04-29 09:42:00,92.5,32.5,29.82,North,-999,0.0,3.6,12,0.00,,,-99.99,FreeWX-Wi 1.02,2013-04-29 16:42:00,
2013-04-29 09:47:00,93.4,37.0,29.82,North,-999,0.0,4.0,14,0.00,,,-99.99,FreeWX-Wi 1.02,2013-04-29 16:47:00,
2013-04-29 09:52:00,93.7,37.2,29.82,North,-999,0.0,4.0,14,0.00,,,-99.99,FreeWX-Wi 1.02,2013-04-29 16:52:00,
2013-04-29 09:57:00,94.6,37.9,29.82,NNW,338,1.0,2.7,14,0.00,,,-99.99,FreeWX-Wi 1.02,2013-04-29 16:57:00,
2013-04-29 10:02:00,95.0,38.3,29.82,NNW,348,1.0,4.0,14,0.00,,,-99.99,FreeWX-Wi 1.02,2013-04-29 17:02:00,
2013-04-29 10:07:00,95.2,38.5,29.82,NNW,343,2.0,10.1,14,0.00,,,-99.99,FreeWX-Wi 1.02,2013-04-29 17:07:00,
2013-04-29 10:12:00,95.9,39.0,29.82,NNW,332,3.0,10.1,14,0.00,,,-99.99,FreeWX-Wi 1.02,2013-04-29 17:12:00,
2013-04-29 10:17:00,96.4,39.4,29.82,NW,313,4.0,8.7,14,0.00,,,-99.99,FreeWX-Wi 1.02,2013-04-29 17:17:00,
2013-04-29 10:22:00,96.4,39.4,29.82,West,279,4.0,8.1,14,0.00,,,-99.99,FreeWX-Wi 1.02,2013-04-29 17:22:00,
2013-04-29 10:27:00,97.0,37.9,29.82,West,264,4.0,7.2,13,0.00,,,-99.99,FreeWX-Wi 1.02,2013-04-29 17:27:00,
2013-04-29 10:32:00,97.7,38.5,29.82,WSW,254,5.0,11.0,13,0.00,,,-99.99,FreeWX-Wi 1.02,2013-04-29 17:32:00,
2013-04-29 10:37:00,98.4,39.0,29.82,WSW,255,5.0,11.4,13,0.00,,,-99.99,FreeWX-Wi 1.02,2013-04-29 17:37:00,
2013-04-29 10:42:00,98.6,39.2,29.82,WSW,254,6.0,13.2,13,0.00,,,-99.99,FreeWX-Wi 1.02,2013-04-29 17:42:00,
2013-04-29 10:47:00,98.4,39.0,29.82,WSW,253,7.0,15.0,13,0.00,,,-99.99,FreeWX-Wi 1.02,2013-04-29 17:47:00,
2013-04-29 10:52:00,99.0,39.6,29.82,WSW,254,8.0,12.8,13,0.00,,,-99.99,FreeWX-Wi 1.02,2013-04-29 17:52:00,
2013-04-29 10:57:00,98.6,39.2,29.82,WSW,250,8.0,12.8,13,0.00,,,-99.99,FreeWX-Wi 1.02,2013-04-29 17:57:00,
2013-04-29 11:02:00,99.3,39.7,29.82,WSW,248,9.0,13.2,13,0.00,,,-99.99,FreeWX-Wi 1.02,2013-04-29 18:02:00,
2013-04-29 11:07:00,100.0,40.3,29.82,WSW,246,9.0,13.2,13,0.00,,,-99.99,FreeWX-Wi 1.02,2013-04-29 18:07:00,
2013-04-29 11:12:00,100.6,38.7,29.82,WSW,244,9.0,12.8,12,0.00,,,-99.99,FreeWX-Wi 1.02,2013-04-29 18:12:00,
2013-04-29 11:17:00,100.9,39.0,29.82,WSW,246,8.0,15.0,12,0.00,,,-99.99,FreeWX-Wi 1.02,2013-04-29 18:17:00,
2013-04-29 11:22:00,101.3,39.2,29.82,WSW,249,8.0,12.8,12,0.00,,,-99.99,FreeWX-Wi 1.02,2013-04-29 18:22:00,
2013-04-29 11:27:00,101.5,39.4,29.82,WSW,251,8.0,14.5,12,0.00,,,-99.99,FreeWX-Wi 1.02,2013-04-29 18:27:00,
2013-04-29 11:32:00,101.8,39.6,29.79,WSW,253,8.0,15.4,12,0.00,,,-99.99,FreeWX-Wi 1.02,2013-04-29 18:32:00,
2013-04-29 11:37:00,102.2,39.9,29.79,WSW,254,8.0,14.5,12,0.00,,,-99.99,FreeWX-Wi 1.02,2013-04-29 18:37:00,
2013-04-29 11:42:00,102.2,39.9,29.79,WSW,258,9.0,15.9,12,0.00,,,-99.99,FreeWX-Wi 1.02,2013-04-29 18:42:00,
2013-04-29 11:47:00,102.4,40.1,29.79,WSW,257,9.0,15.4,12,0.00,,,-99.99,FreeWX-Wi 1.02,2013-04-29 18:47:00,
2013-04-29 11:53:00,102.6,40.3,29.79,WSW,258,9.0,15.0,12,0.00,,,-99.99,FreeWX-Wi 1.02,2013-04-29 18:53:00,
2013-04-29 11:58:00,102.9,40.5,29.79,WSW,257,10.0,16.3,12,0.00,,,-99.99,FreeWX-Wi 1.02,2013-04-29 18:58:00,
2013-04-29 12:03:00,102.9,40.5,29.79,WSW,258,10.0,17.9,12,0.00,,,-99.99,FreeWX-Wi 1.02,2013-04-29 19:03:00,
2013-04-29 12:08:00,102.7,40.3,29.79,West,259,10.0,15.0,12,0.00,,,-99.99,FreeWX-Wi 1.02,2013-04-29 19:08:00,
2013-04-29 12:13:00,102.9,40.5,29.79,West,259,10.0,13.6,12,0.00,,,-99.99,FreeWX-Wi 1.02,2013-04-29 19:13:00,
2013-04-29 12:18:00,103.5,40.8,29.79,West,259,10.0,14.1,12,0.00,,,-99.99,FreeWX-Wi 1.02,2013-04-29 19:18:00,
2013-04-29 12:23:00,103.5,40.8,29.79,WSW,257,10.0,16.3,12,0.00,,,-99.99,FreeWX-Wi 1.02,2013-04-29 19:23:00,
2013-04-29 12:28:00,103.6,41.0,29.79,WSW,258,10.0,17.4,12,0.00,,,-99.99,FreeWX-Wi 1.02,2013-04-29 19:28:00,
2013-04-29 12:33:00,104.0,41.4,29.79,WSW,258,10.0,15.9,12,0.00,,,-99.99,FreeWX-Wi 1.02,2013-04-29 19:33:00,
2013-04-29 12:38:00,104.7,41.9,29.79,WSW,258,10.0,15.4,12,0.00,,,-99.99,FreeWX-Wi 1.02,2013-04-29 19:38:00,
2013-04-29 12:43:00,104.7,41.9,29.79,West,261,10.0,15.0,12,0.00,,,-99.99,FreeWX-Wi 1.02,2013-04-29 19:43:00,
2013-04-29 12:48:00,105.3,42.3,29.79,West,263,10.0,14.1,12,0.00,,,-99.99,FreeWX-Wi 1.02,2013-04-29 19:48:00,
2013-04-29 12:53:00,105.1,42.1,29.79,West,264,10.0,17.0,12,0.00,,,-99.99,FreeWX-Wi 1.02,2013-04-29 19:53:00,
2013-04-29 12:58:00,104.4,41.5,29.79,West,265,10.0,13.6,12,0.00,,,-99.99,FreeWX-Wi 1.02,2013-04-29 19:58:00,
2013-04-29 13:03:00,104.2,41.4,29.79,West,265,10.0,17.9,12,0.00,,,-99.99,FreeWX-Wi 1.02,2013-04-29 20:03:00,
2013-04-29 13:08:00,104.4,41.5,29.79,West,267,10.0,17.4,12,0.00,,,-99.99,FreeWX-Wi 1.02,2013-04-29 20:08:00,
2013-04-29 13:13:00,104.4,41.5,29.79,West,263,10.0,17.0,12,0.00,,,-99.99,FreeWX-Wi 1.02,2013-04-29 20:13:00,
2013-04-29 13:18:00,104.7,41.9,29.79,West,264,11.0,17.4,12,0.00,,,-99.99,FreeWX-Wi 1.02,2013-04-29 20:18:00,
2013-04-29 13:23:00,104.7,41.9,29.79,West,266,10.0,17.4,12,0.00,,,-99.99,FreeWX-Wi 1.02,2013-04-29 20:23:00,
2013-04-29 13:28:00,104.4,41.5,29.79,West,266,10.0,19.7,12,0.00,,,-99.99,FreeWX-Wi 1.02,2013-04-29 20:28:00,
2013-04-29 13:33:00,104.2,41.4,29.76,West,267,10.0,19.7,12,0.00,,,-99.99,FreeWX-Wi 1.02,2013-04-29 20:33:00,
2013-04-29 13:38:00,104.4,41.5,29.76,West,267,10.0,14.5,12,0.00,,,-99.99,FreeWX-Wi 1.02,2013-04-29 20:38:00,
2013-04-29 13:43:00,104.4,41.5,29.76,West,269,10.0,16.3,12,0.00,,,-99.99,FreeWX-Wi 1.02,2013-04-29 20:43:00,
2013-04-29 13:48:00,104.4,41.5,29.76,West,269,10.0,15.4,12,0.00,,,-99.99,FreeWX-Wi 1.02,2013-04-29 20:48:00,
2013-04-29 13:53:00,104.4,41.5,29.76,West,269,10.0,16.8,12,0.00,,,-99.99,FreeWX-Wi 1.02,2013-04-29 20:53:00,
2013-04-29 13:58:00,104.5,41.7,29.76,West,269,10.0,15.4,12,0.00,,,-99.99,FreeWX-Wi 1.02,2013-04-29 20:58:00,
2013-04-29 14:03:00,104.5,41.7,29.76,West,269,10.0,17.4,12,0.00,,,-99.99,FreeWX-Wi 1.02,2013-04-29 21:03:00,
2013-04-29 14:08:00,104.9,41.9,29.76,West,269,10.0,19.7,12,0.00,,,-99.99,FreeWX-Wi 1.02,2013-04-29 21:08:00,
2013-04-29 14:13:00,104.5,41.7,29.76,West,269,10.0,19.7,12,0.00,,,-99.99,FreeWX-Wi 1.02,2013-04-29 21:13:00,
2013-04-29 14:18:00,104.2,41.4,29.76,West,271,11.0,19.7,12,0.00,,,-99.99,FreeWX-Wi 1.02,2013-04-29 21:18:00,
2013-04-29 14:23:00,104.2,41.4,29.76,West,271,10.0,18.3,12,0.00,,,-99.99,FreeWX-Wi 1.02,2013-04-29 21:23:00,
2013-04-29 14:28:00,104.0,41.4,29.76,West,270,10.0,19.7,12,0.00,,,-99.99,FreeWX-Wi 1.02,2013-04-29 21:28:00,
2013-04-29 14:33:00,103.8,41.2,29.76,West,270,11.0,17.0,12,0.00,,,-99.99,FreeWX-Wi 1.02,2013-04-29 21:33:00,
2013-04-29 14:38:00,104.4,41.5,29.76,West,270,11.0,13.2,12,0.00,,,-99.99,FreeWX-Wi 1.02,2013-04-29 21:38:00,
2013-04-29 14:43:00,103.8,41.2,29.76,West,270,11.0,21.9,12,0.00,,,-99.99,FreeWX-Wi 1.02,2013-04-29 21:43:00,
2013-04-29 14:48:00,104.0,41.4,29.74,West,269,11.0,24.2,12,0.00,,,-99.99,FreeWX-Wi 1.02,2013-04-29 21:48:00,
2013-04-29 14:53:00,104.0,41.4,29.74,West,268,11.0,17.9,12,0.00,,,-99.99,FreeWX-Wi 1.02,2013-04-29 21:53:00,
2013-04-29 14:58:00,104.0,41.4,29.74,West,268,11.0,19.7,12,0.00,,,-99.99,FreeWX-Wi 1.02,2013-04-29 21:58:00,
2013-04-29 15:03:00,104.0,41.4,29.74,West,268,10.0,15.9,12,0.00,,,-99.99,FreeWX-Wi 1.02,2013-04-29 22:03:00,
2013-04-29 15:08:00,103.6,41.0,29.74,West,271,10.0,18.8,12,0.00,,,-99.99,FreeWX-Wi 1.02,2013-04-29 22:08:00,
2013-04-29 15:13:00,103.3,40.8,29.74,West,273,10.0,15.0,12,0.00,,,-99.99,FreeWX-Wi 1.02,2013-04-29 22:13:00,
2013-04-29 15:18:00,103.3,40.8,29.74,West,275,10.0,25.1,12,0.00,,,-99.99,FreeWX-Wi 1.02,2013-04-29 22:18:00,
2013-04-29 15:23:00,103.3,40.8,29.74,West,276,10.0,21.0,12,0.00,,,-99.99,FreeWX-Wi 1.02,2013-04-29 22:23:00,
2013-04-29 15:28:00,103.6,41.0,29.74,West,276,10.0,15.9,12,0.00,,,-99.99,FreeWX-Wi 1.02,2013-04-29 22:28:00,
2013-04-29 15:33:00,103.6,41.0,29.74,West,275,10.0,18.8,12,0.00,,,-99.99,FreeWX-Wi 1.02,2013-04-29 22:33:00,
2013-04-29 15:38:00,103.5,40.8,29.74,West,275,9.0,17.4,12,0.00,,,-99.99,FreeWX-Wi 1.02,2013-04-29 22:38:00,
2013-04-29 15:43:00,103.1,40.6,29.74,West,273,10.0,21.9,12,0.00,,,-99.99,FreeWX-Wi 1.02,2013-04-29 22:43:00,
2013-04-29 15:48:00,102.7,40.3,29.74,West,272,11.0,22.8,12,0.00,,,-99.99,FreeWX-Wi 1.02,2013-04-29 22:48:00,
2013-04-29 15:53:00,102.6,40.3,29.74,West,270,11.0,19.2,12,0.00,,,-99.99,FreeWX-Wi 1.02,2013-04-29 22:53:00,
2013-04-29 15:58:00,102.4,40.1,29.74,West,271,11.0,15.4,12,0.00,,,-99.99,FreeWX-Wi 1.02,2013-04-29 22:58:00,
2013-04-29 16:03:00,102.6,40.3,29.71,West,272,11.0,17.4,12,0.00,,,-99.99,FreeWX-Wi 1.02,2013-04-29 23:03:00,
2013-04-29 16:08:00,102.2,39.9,29.71,West,270,11.0,15.0,12,0.00,,,-99.99,FreeWX-Wi 1.02,2013-04-29 23:08:00,
2013-04-29 16:13:00,102.0,39.7,29.71,West,270,11.0,15.4,12,0.00,,,-99.99,FreeWX-Wi 1.02,2013-04-29 23:13:00,
2013-04-29 16:18:00,101.8,39.6,29.71,West,270,10.0,23.7,12,0.00,,,-99.99,FreeWX-Wi 1.02,2013-04-29 23:18:00,
2013-04-29 16:23:00,101.3,39.2,29.71,West,272,10.0,18.3,12,0.00,,,-99.99,FreeWX-Wi 1.02,2013-04-29 23:23:00,
2013-04-29 16:28:00,101.1,39.0,29.71,West,270,10.0,18.3,12,0.00,,,-99.99,FreeWX-Wi 1.02,2013-04-29 23:28:00,
2013-04-29 16:33:00,101.1,39.0,29.71,West,270,11.0,19.7,12,0.00,,,-99.99,FreeWX-Wi 1.02,2013-04-29 23:33:00,
2013-04-29 16:38:00,101.1,39.0,29.71,West,269,11.0,22.4,12,0.00,,,-99.99,FreeWX-Wi 1.02,2013-04-29 23:38:00,
2013-04-29 16:43:00,100.6,38.7,29.71,West,270,11.0,18.8,12,0.00,,,-99.99,FreeWX-Wi 1.02,2013-04-29 23:43:00,
2013-04-29 16:48:00,100.6,38.7,29.71,West,269,11.0,21.0,12,0.00,,,-99.99,FreeWX-Wi 1.02,2013-04-29 23:48:00,
2013-04-29 16:53:00,100.2,40.5,29.71,West,269,11.0,22.4,13,0.00,,,-99.99,FreeWX-Wi 1.02,2013-04-29 23:53:00,
2013-04-29 16:58:00,100.0,40.3,29.71,West,268,11.0,22.4,13,0.00,,,-99.99,FreeWX-Wi 1.02,2013-04-29 23:58:00,
2013-04-29 17:03:00,99.9,40.1,29.71,West,269,11.0,21.9,13,0.00,,,-99.99,FreeWX-Wi 1.02,2013-04-30 00:03:00,
2013-04-29 17:08:00,99.7,40.1,29.71,West,271,11.0,15.4,13,0.00,,,-99.99,FreeWX-Wi 1.02,2013-04-30 00:08:00,
2013-04-29 17:13:00,99.1,39.6,29.71,West,273,10.0,21.5,13,0.00,,,-99.99,FreeWX-Wi 1.02,2013-04-30 00:13:00,
2013-04-29 17:18:00,99.1,39.6,29.71,West,271,11.0,20.6,13,0.00,,,-99.99,FreeWX-Wi 1.02,2013-04-30 00:18:00,
2013-04-29 17:23:00,99.0,39.6,29.71,West,272,11.0,23.7,13,0.00,,,-99.99,FreeWX-Wi 1.02,2013-04-30 00:23:00,
2013-04-29 17:28:00,98.6,39.2,29.71,West,270,11.0,16.8,13,0.00,,,-99.99,FreeWX-Wi 1.02,2013-04-30 00:28:00,
2013-04-29 17:33:00,97.9,38.7,29.71,West,271,10.0,23.7,13,0.00,,,-99.99,FreeWX-Wi 1.02,2013-04-30 00:33:00,
2013-04-29 17:38:00,97.2,38.1,29.71,West,276,10.0,17.4,13,0.00,,,-99.99,FreeWX-Wi 1.02,2013-04-30 00:38:00,
2013-04-29 17:43:00,96.8,37.8,29.71,West,275,11.0,21.9,13,0.00,,,-99.99,FreeWX-Wi 1.02,2013-04-30 00:43:00,
2013-04-29 17:48:00,96.1,39.2,29.71,West,279,10.0,19.7,14,0.00,,,-99.99,FreeWX-Wi 1.02,2013-04-30 00:48:00,
2013-04-29 17:53:00,95.5,38.7,29.71,West,277,10.0,23.3,14,0.00,,,-99.99,FreeWX-Wi 1.02,2013-04-30 00:53:00,
2013-04-29 17:58:00,94.5,37.9,29.71,WNW,282,10.0,12.3,14,0.00,,,-99.99,FreeWX-Wi 1.02,2013-04-30 00:58:00,
2013-04-29 18:03:00,94.5,37.9,29.71,WNW,282,10.0,19.7,14,0.00,,,-99.99,FreeWX-Wi 1.02,2013-04-30 01:03:00,
2013-04-29 18:08:00,94.1,31.5,29.71,West,280,10.0,11.0,11,0.00,,,-99.99,FreeWX-Wi 1.02,2013-04-30 01:08:00,
2013-04-29 18:13:00,93.6,37.2,29.71,West,277,9.0,16.3,14,0.00,,,-99.99,FreeWX-Wi 1.02,2013-04-30 01:13:00,
2013-04-29 18:18:00,92.8,32.7,29.71,West,275,9.0,17.0,12,0.00,,,-99.99,FreeWX-Wi 1.02,2013-04-30 01:18:00,
2013-04-29 18:23:00,92.1,32.2,29.71,West,279,8.0,16.8,12,0.00,,,-99.99,FreeWX-Wi 1.02,2013-04-30 01:23:00,
2013-04-29 18:28:00,91.6,31.8,29.71,West,276,8.0,12.8,12,0.00,,,-99.99,FreeWX-Wi 1.02,2013-04-30 01:28:00,
2013-04-29 18:33:00,90.7,31.1,29.71,West,279,8.0,17.0,12,0.00,,,-99.99,FreeWX-Wi 1.02,2013-04-30 01:33:00,
2013-04-29 18:38:00,90.3,30.7,29.71,West,281,8.0,13.2,12,0.00,,,-99.99,FreeWX-Wi 1.02,2013-04-30 01:38:00,
2013-04-29 18:43:00,90.1,30.7,29.71,WNW,289,8.0,15.0,12,0.00,,,-99.99,FreeWX-Wi 1.02,2013-04-30 01:43:00,
2013-04-29 18:48:00,89.4,32.0,29.71,WNW,292,8.0,15.4,13,0.00,,,-99.99,FreeWX-Wi 1.02,2013-04-30 01:48:00,
2013-04-29 18:53:00,89.1,31.8,29.71,WNW,292,7.0,8.7,13,0.00,,,-99.99,FreeWX-Wi 1.02,2013-04-30 01:53:00,
2013-04-29 18:58:00,88.5,31.5,29.71,WNW,293,7.0,17.4,13,0.00,,,-99.99,FreeWX-Wi 1.02,2013-04-30 01:58:00,
2013-04-29 19:03:00,88.2,31.1,29.71,WNW,302,6.0,11.4,13,0.00,,,-99.99,FreeWX-Wi 1.02,2013-04-30 02:03:00,
2013-04-29 19:08:00,87.6,30.7,29.71,WNW,302,6.0,11.0,13,0.00,,,-99.99,FreeWX-Wi 1.02,2013-04-30 02:08:00,
2013-04-29 19:13:00,87.1,30.2,29.71,NW,306,6.0,8.7,13,0.00,,,-99.99,FreeWX-Wi 1.02,2013-04-30 02:13:00,
2013-04-29 19:18:00,86.7,30.0,29.71,NW,311,6.0,10.1,13,0.00,,,-99.99,FreeWX-Wi 1.02,2013-04-30 02:18:00,
2013-04-29 19:23:00,86.0,29.5,29.71,NW,313,6.0,11.0,13,0.00,,,-99.99,FreeWX-Wi 1.02,2013-04-30 02:23:00,
2013-04-29 19:28:00,85.8,29.3,29.71,NW,318,6.0,8.1,13,0.00,,,-99.99,FreeWX-Wi 1.02,2013-04-30 02:28:00,
2013-04-29 19:33:00,85.3,28.9,29.71,NW,313,6.0,13.6,13,0.00,,,-99.99,FreeWX-Wi 1.02,2013-04-30 02:33:00,
2013-04-29 19:38:00,84.7,28.4,29.71,NW,318,6.0,14.5,13,0.00,,,-99.99,FreeWX-Wi 1.02,2013-04-30 02:38:00,
2013-04-29 19:43:00,84.6,28.2,29.71,NW,316,6.0,15.9,13,0.00,,,-99.99,FreeWX-Wi 1.02,2013-04-30 02:43:00,
2013-04-29 19:48:00,84.2,28.0,29.71,NW,323,6.0,11.0,13,0.00,,,-99.99,FreeWX-Wi 1.02,2013-04-30 02:48:00,
2013-04-29 19:53:00,83.7,29.5,29.71,NW,323,6.0,12.3,14,0.00,,,-99.99,FreeWX-Wi 1.02,2013-04-30 02:53:00,
2013-04-29 19:58:00,83.7,29.5,29.71,NW,323,6.0,12.3,14,0.00,,,-99.99,FreeWX-Wi 1.02,2013-04-30 02:58:00,
2013-04-29 20:03:00,83.1,28.9,29.71,NNW,327,6.0,8.7,14,0.00,,,-99.99,FreeWX-Wi 1.02,2013-04-30 03:03:00,
2013-04-29 20:08:00,82.8,28.8,29.71,NNW,330,6.0,11.0,14,0.00,,,-99.99,FreeWX-Wi 1.02,2013-04-30 03:08:00,
2013-04-29 20:13:00,82.6,28.6,29.71,NNW,332,6.0,13.6,14,0.00,,,-99.99,FreeWX-Wi 1.02,2013-04-30 03:13:00,
2013-04-29 20:18:00,82.2,28.2,29.71,NNW,329,6.0,10.1,14,0.00,,,-99.99,FreeWX-Wi 1.02,2013-04-30 03:18:00,
2013-04-29 20:23:00,82.2,28.2,29.71,NNW,329,6.0,11.0,14,0.00,,,-99.99,FreeWX-Wi 1.02,2013-04-30 03:23:00,
2013-04-29 20:28:00,82.0,28.0,29.71,NNW,335,6.0,8.7,14,0.00,,,-99.99,FreeWX-Wi 1.02,2013-04-30 03:28:00,
2013-04-29 20:33:00,82.6,28.6,29.71,NNW,336,6.0,14.5,14,0.00,,,-99.99,FreeWX-Wi 1.02,2013-04-30 03:33:00,
2013-04-29 20:38:00,82.2,28.2,29.71,NNW,335,5.0,11.0,14,0.00,,,-99.99,FreeWX-Wi 1.02,2013-04-30 03:38:00,
2013-04-29 20:43:00,82.2,28.2,29.71,NNW,336,5.0,11.9,14,0.00,,,-99.99,FreeWX-Wi 1.02,2013-04-30 03:43:00,
2013-04-29 20:48:00,81.9,28.0,29.74,NNW,336,5.0,10.1,14,0.00,,,-99.99,FreeWX-Wi 1.02,2013-04-30 03:48:00,
2013-04-29 20:53:00,82.0,28.0,29.74,NNW,335,6.0,13.2,14,0.00,,,-99.99,FreeWX-Wi 1.02,2013-04-30 03:53:00,
2013-04-29 20:58:00,82.2,28.2,29.74,NNW,332,6.0,15.4,14,0.00,,,-99.99,FreeWX-Wi 1.02,2013-04-30 03:58:00,
2013-04-29 21:03:00,82.6,28.6,29.74,NNW,329,6.0,13.2,14,0.00,,,-99.99,FreeWX-Wi 1.02,2013-04-30 04:03:00,
2013-04-29 21:08:00,82.4,28.4,29.74,NNW,332,6.0,12.3,14,0.00,,,-99.99,FreeWX-Wi 1.02,2013-04-30 04:08:00,
2013-04-29 21:13:00,82.0,28.0,29.74,NNW,333,6.0,10.1,14,0.00,,,-99.99,FreeWX-Wi 1.02,2013-04-30 04:13:00,
2013-04-29 21:18:00,81.5,27.7,29.74,NNW,337,6.0,12.8,14,0.00,,,-99.99,FreeWX-Wi 1.02,2013-04-30 04:18:00,
2013-04-29 21:23:00,81.7,27.9,29.74,NNW,337,6.0,10.1,14,0.00,,,-99.99,FreeWX-Wi 1.02,2013-04-30 04:23:00,
2013-04-29 21:28:00,81.1,27.5,29.74,NNW,336,6.0,12.8,14,0.00,,,-99.99,FreeWX-Wi 1.02,2013-04-30 04:28:00,
2013-04-29 21:33:00,81.0,27.3,29.74,NNW,331,5.0,7.6,14,0.00,,,-99.99,FreeWX-Wi 1.02,2013-04-30 04:33:00,
2013-04-29 21:38:00,80.6,27.0,29.74,NNW,329,5.0,11.4,14,0.00,,,-99.99,FreeWX-Wi 1.02,2013-04-30 04:38:00,
2013-04-29 21:43:00,80.4,28.6,29.74,NNW,329,5.0,12.3,15,0.00,,,-99.99,FreeWX-Wi 1.02,2013-04-30 04:43:00,
2013-04-29 21:48:00,80.8,27.1,29.74,NNW,330,5.0,11.0,14,0.00,,,-99.99,FreeWX-Wi 1.02,2013-04-30 04:48:00,
2013-04-29 21:53:00,80.1,28.2,29.74,NNW,330,4.0,7.2,15,0.00,,,-99.99,FreeWX-Wi 1.02,2013-04-30 04:53:00,
2013-04-29 21:58:00,80.1,28.2,29.74,NNW,334,5.0,10.1,15,0.00,,,-99.99,FreeWX-Wi 1.02,2013-04-30 04:58:00,
2013-04-29 22:03:00,79.9,28.0,29.74,NNW,333,4.0,8.7,15,0.00,,,-99.99,FreeWX-Wi 1.02,2013-04-30 05:03:00,
2013-04-29 22:08:00,79.9,28.0,29.74,NNW,333,5.0,11.9,15,0.00,,,-99.99,FreeWX-Wi 1.02,2013-04-30 05:08:00,
2013-04-29 22:13:00,79.9,28.0,29.74,NNW,333,5.0,9.6,15,0.00,,,-99.99,FreeWX-Wi 1.02,2013-04-30 05:13:00,
2013-04-29 22:18:00,79.9,28.0,29.74,NNW,331,5.0,9.6,15,0.00,,,-99.99,FreeWX-Wi 1.02,2013-04-30 05:18:00,
2013-04-29 22:23:00,79.7,28.0,29.74,NNW,329,5.0,11.0,15,0.00,,,-99.99,FreeWX-Wi 1.02,2013-04-30 05:23:00,
2013-04-29 22:28:00,79.2,27.5,29.74,NNW,329,5.0,10.1,15,0.00,,,-99.99,FreeWX-Wi 1.02,2013-04-30 05:28:00,
2013-04-29 22:33:00,79.3,27.7,29.74,NNW,330,5.0,8.7,15,0.00,,,-99.99,FreeWX-Wi 1.02,2013-04-30 05:33:00,
2013-04-29 22:38:00,79.7,28.0,29.74,NNW,332,5.0,13.2,15,0.00,,,-99.99,FreeWX-Wi 1.02,2013-04-30 05:38:00,
2013-04-29 22:43:00,79.0,27.3,29.74,NNW,328,5.0,8.7,15,0.00,,,-99.99,FreeWX-Wi 1.02,2013-04-30 05:43:00,
2013-04-29 22:48:00,79.3,27.7,29.74,NNW,327,5.0,14.1,15,0.00,,,-99.99,FreeWX-Wi 1.02,2013-04-30 05:48:00,
2013-04-29 22:53:00,79.0,27.3,29.74,NW,325,5.0,10.5,15,0.00,,,-99.99,FreeWX-Wi 1.02,2013-04-30 05:53:00,
2013-04-29 22:58:00,79.0,27.3,29.74,NNW,327,5.0,8.7,15,0.00,,,-99.99,FreeWX-Wi 1.02,2013-04-30 05:58:00,
2013-04-29 23:03:00,79.0,27.3,29.74,NNW,331,5.0,8.7,15,0.00,,,-99.99,FreeWX-Wi 1.02,2013-04-30 06:03:00,
2013-04-29 23:08:00,79.3,27.7,29.74,NNW,334,5.0,10.5,15,0.00,,,-99.99,FreeWX-Wi 1.02,2013-04-30 06:08:00,
2013-04-29 23:13:00,79.5,27.9,29.74,NNW,336,5.0,10.5,15,0.00,,,-99.99,FreeWX-Wi 1.02,2013-04-30 06:13:00,
2013-04-29 23:18:00,79.0,27.3,29.71,NNW,337,5.0,8.7,15,0.00,,,-99.99,FreeWX-Wi 1.02,2013-04-30 06:18:00,
2013-04-29 23:23:00,79.7,28.0,29.71,NNW,341,5.0,15.4,15,0.00,,,-99.99,FreeWX-Wi 1.02,2013-04-30 06:23:00,
2013-04-29 23:28:00,79.2,27.5,29.71,NNW,337,6.0,11.0,15,0.00,,,-99.99,FreeWX-Wi 1.02,2013-04-30 06:28:00,
2013-04-29 23:33:00,79.3,27.7,29.74,NNW,336,6.0,11.4,15,0.00,,,-99.99,FreeWX-Wi 1.02,2013-04-30 06:33:00,
2013-04-29 23:38:00,78.8,27.3,29.74,NNW,333,6.0,7.2,15,0.00,,,-99.99,FreeWX-Wi 1.02,2013-04-30 06:38:00,
2013-04-29 23:43:00,79.2,27.5,29.74,NNW,333,5.0,10.1,15,0.00,,,-99.99,FreeWX-Wi 1.02,2013-04-30 06:43:00,
2013-04-29 23:48:00,79.0,27.3,29.74,NNW,335,6.0,12.3,15,0.00,,,-99.99,FreeWX-Wi 1.02,2013-04-30 06:48:00,
2013-04-29 23:53:00,78.8,27.3,29.74,NNW,332,5.0,8.3,15,0.00,,,-99.99,FreeWX-Wi 1.02,2013-04-30 06:53:00,
2013-04-29 23:58:00,78.8,27.3,29.74,NNW,331,5.0,8.7,15,0.00,,,-99.99,FreeWX-Wi 1.02,2013-04-30 06:58:00,